Regional Weather Roundup
Issued by NWS Raleigh/Durham, NC

Home | Current Version | Previous Version | Text Only | Print | Product List | Glossary On
Versions: 1 2 3 4 5 6 7 8 9 10 11 12 13 14 15 16 17 18 19 20 21 22 23 24 25 26 27
000
ASUS42 KRAH 172210
RWRRAH
NORTH CAROLINA WEATHER ROUNDUP
NATIONAL WEATHER SERVICE RALEIGH NC
500 PM EST WED JAN 17 2018

NOTE: "FAIR" INDICATES FEW OR NO CLOUDS BELOW 12,000 FEET WITH NO
SIGNIFICANT WEATHER AND/OR OBSTRUCTIONS TO VISIBILITY.

NCZ001-053-055-056-065-067-172300-
WESTERN NORTH CAROLINA

CITY           SKY/WX    TMP DP  RH WIND       PRES   REMARKS
ASHEVILLE      FAIR      16   4  59 N21G36    30.25R WCI  -1
JEFFERSON      CLOUDY    12   3  68 W7G21     30.15S WCI   1
MORGANTON      CLOUDY    25  12  58 N5        30.27S WCI  19
HICKORY        LGT SNOW  22  18  85 VRB6      30.23S FOG     WCI  14
RUTHERFORDTON  CLOUDY    24   8  49 N9        30.26R WCI  15
MOUNT AIRY     LGT SNOW  24  12  60 NW9G20    30.25S WCI  14
BOONE          LGT SNOW  11   5  76 NW21G28   30.17S WCI  -8
$$

NCZ021-022-025-041-071-084-088-172300-
CENTRAL NORTH CAROLINA

CITY           SKY/WX    TMP DP  RH WIND       PRES   REMARKS
CHARLOTTE      FLURRIES  28  23  81 N16G22    30.24R WCI  16
GREENSBORO     FLURRIES  23  19  85 N12G18    30.22R WCI  12
WINSTON-SALEM  LGT SNOW  23  18  81 N15       30.24S WCI  10
RALEIGH-DURHAM HVY SNOW  28  27  96 NE13G23   30.21R VSB 1/4 WCI  17
FORT BRAGG     LGT SNOW  32  32 100 N8        30.15R FOG     WCI  25
FAYETTEVILLE   LGT RAIN  37  36  96 N9        30.14R FOG     WCI  30
BURLINGTON     LGT SNOW  28  24  85 N10       30.22R FOG     WCI  19
LAURINBURG     CLOUDY    34  32  92 N9        30.17R FOG     WCI  27
$$

NCZ011-015-027-028-043-044-047-080-103-172300-
NORTHEASTERN NORTH CAROLINA

CITY           SKY/WX    TMP DP  RH WIND       PRES   REMARKS
ROCKY MT-WILSO SNOW      30  30 100 N17       30.20S VSB 1/2 WCI  18
GREENVILLE     DRIZZLE   37  32  81 NE9G18    30.19S WCI  31
WASHINGTON     CLOUDY    38  31  75 NE9       30.18S WCI  32
ELIZABETH CITY MOCLDY    31  29  92 N17       30.21F WCI  19
MANTEO         CLOUDY    34  31  88 N17G23    30.20S WCI  24
CAPE HATTERAS  RAIN      39  38  96 N12G22    30.14R FOG     WCI  32
$$

NCZ078-087-090-091-093-098-101-172300-
SOUTHEASTERN NORTH CAROLINA

CITY           SKY/WX    TMP DP  RH WIND       PRES   REMARKS
LUMBERTON      LGT RAIN  38  37  97 N7        30.13R FOG     WCI  33
GOLDSBORO      FLURRIES  36  32  87 N13       30.14S WCI  27
KINSTON        CLOUDY    39  32  75 N12G18    30.15F WCI  32
KENANSVILLE    CLOUDY    39  30  70 N10       30.14R WCI  32
NEW BERN       CLOUDY    40  31  70 NE15G23   30.15F WCI  32
CHERRY POINT   MOCLDY    44  33  65 NE16      30.14S
BEAUFORT       FAIR      40  34  79 N16G22    30.13F WCI  31
JACKSONVILLE   MOCLDY    46  34  62 NE13      30.11F
WILMINGTON     CLOUDY    47  33  58 N7        30.09F
$$





USA.gov is the U.S. government's official web portal to all federal, state and local government web resources and services.